Private Wetterstation Wechselburg
Wetterdaten: Freitag, 09.07.2010
Datum Zeit Temp. +2m Bodentemp. Temp.+5cm Temp. Wind Windchill X Diff Temp. Feuchte +2m Feuchte +5cm Sonnenschein Luftdruck Regen Wind Richtung Richtung Sonnenschein UV Taupunkt Windchill Windben
09.07.2010 00:00 20,2 C 21,4 C 17,7 C 18,8 C 15,9 C 0,0 C 74 % 84 % 0 % 1018,9 hPa 0,0 l/m 0,0 km/h (0 Bft) S-SW 202 0 min 0,4 UV-I 15,4 C 15,9 C 0,0 km/h (0 Bft)
09.07.2010 00:07 20,3 C 21,4 C 17,7 C 18,8 C 15,7 C 0,0 C 75 % 85 % 0 % 1018,9 hPa 0,0 l/m 0,2 km/h (0 Bft) N 0 0 min 0,9 UV-I 15,7 C 15,7 C 1,8 km/h (1 Bft)
09.07.2010 00:10 20,3 C 21,4 C 17,7 C 18,8 C 15,7 C 0,0 C 75 % 85 % 0 % 1018,9 hPa 0,0 l/m 0,2 km/h (0 Bft) S-SW 202 0 min 0,9 UV-I 15,7 C 15,7 C 1,8 km/h (1 Bft)
09.07.2010 00:15 20,3 C 21,4 C 17,7 C 18,7 C 15,6 C 0,0 C 74 % 85 % 0 % 1018,9 hPa 0,0 l/m 0,2 km/h (0 Bft) S-SW 202 0 min 0,9 UV-I 15,5 C 15,6 C 0,0 km/h (0 Bft)
09.07.2010 00:20 20,0 C 21,4 C 17,5 C 18,5 C 15,5 C 0,0 C 74 % 85 % 0 % 1018,8 hPa 0,0 l/m 0,2 km/h (0 Bft) S-SW 202 0 min 0,9 UV-I 15,2 C 15,5 C 0,0 km/h (0 Bft)
09.07.2010 00:25 20,0 C 21,4 C 17,5 C 18,5 C 15,5 C 0,0 C 75 % 85 % 0 % 1018,8 hPa 0,0 l/m 0,0 km/h (0 Bft) S-SW 202 0 min 0,9 UV-I 15,4 C 15,5 C 0,0 km/h (0 Bft)
09.07.2010 00:30 19,9 C 21,5 C 17,5 C 18,4 C 15,4 C 0,0 C 75 % 85 % 0 % 1018,8 hPa 0,0 l/m 0,0 km/h (0 Bft) S-SW 202 0 min 0,6 UV-I 15,3 C 15,4 C 0,0 km/h (0 Bft)
09.07.2010 00:35 19,8 C 21,4 C 17,4 C 18,3 C 15,3 C 0,0 C 75 % 85 % 0 % 1018,8 hPa 0,0 l/m 0,0 km/h (0 Bft) S-SW 202 0 min 0,6 UV-I 15,2 C 15,3 C 0,0 km/h (0 Bft)
09.07.2010 00:40 19,8 C 21,3 C 17,4 C 18,3 C 15,2 C 0,0 C 76 % 86 % 0 % 1018,8 hPa 0,0 l/m 0,0 km/h (0 Bft) S-SW 202 0 min 0,8 UV-I 15,4 C 15,2 C 0,0 km/h (0 Bft)
09.07.2010 00:45 19,6 C 21,4 C 17,3 C 18,1 C 15,2 C 0,0 C 75 % 85 % 0 % 1018,8 hPa 0,0 l/m 0,0 km/h (0 Bft) S-SW 202 0 min 0,8 UV-I 15,0 C 15,2 C 0,0 km/h (0 Bft)
09.07.2010 00:50 19,5 C 21,4 C 17,2 C 18,1 C 15,2 C 0,0 C 76 % 85 % 0 % 1018,8 hPa 0,0 l/m 0,0 km/h (0 Bft) SW 225 0 min 1,2 UV-I 15,2 C 15,2 C 0,0 km/h (0 Bft)
09.07.2010 00:55 19,4 C 21,3 C 17,2 C 18,0 C 15,1 C 0,0 C 76 % 85 % 0 % 1018,8 hPa 0,0 l/m 0,0 km/h (0 Bft) SW 225 0 min 1,2 UV-I 15,1 C 15,1 C 0,0 km/h (0 Bft)
09.07.2010 01:00 19,5 C 21,3 C 17,0 C 18,0 C 15,0 C 0,0 C 76 % 86 % 0 % 1018,9 hPa 0,0 l/m 0,0 km/h (0 Bft) SW 225 0 min 1,1 UV-I 15,2 C 15,0 C 0,0 km/h (0 Bft)
09.07.2010 01:07 19,2 C 21,3 C 16,9 C 17,8 C 15,0 C 0,0 C 76 % 86 % 0 % 1018,9 hPa 0,0 l/m 0,0 km/h (0 Bft) SW 225 0 min 1,4 UV-I 14,9 C 15,0 C 0,0 km/h (0 Bft)
09.07.2010 01:10 19,2 C 21,3 C 16,9 C 17,8 C 15,0 C 0,0 C 76 % 86 % 0 % 1018,9 hPa 0,0 l/m 0,0 km/h (0 Bft) SW 225 0 min 1,4 UV-I 14,9 C 15,0 C 0,0 km/h (0 Bft)
09.07.2010 01:15 19,1 C 21,3 C 16,9 C 17,7 C 15,0 C 0,0 C 76 % 86 % 0 % 1018,9 hPa 0,0 l/m 0,0 km/h (0 Bft) SW 225 0 min 1,4 UV-I 14,8 C 15,0 C 0,0 km/h (0 Bft)
09.07.2010 01:20 18,9 C 21,3 C 16,7 C 17,6 C 14,9 C 0,0 C 77 % 86 % 0 % 1019,0 hPa 0,0 l/m 0,0 km/h (0 Bft) SW 225 0 min 1,2 UV-I 14,8 C 14,9 C 0,0 km/h (0 Bft)
09.07.2010 01:25 18,9 C 21,3 C 16,7 C 17,6 C 14,9 C 0,0 C 77 % 86 % 0 % 1019,0 hPa 0,0 l/m 0,0 km/h (0 Bft) SW 225 0 min 1,2 UV-I 14,8 C 14,9 C 0,0 km/h (0 Bft)
09.07.2010 01:30 18,9 C 21,3 C 16,7 C 17,5 C 14,7 C 0,0 C 78 % 87 % 0 % 1019,0 hPa 0,0 l/m 0,0 km/h (0 Bft) SW 225 0 min 1,4 UV-I 15,0 C 14,7 C 0,0 km/h (0 Bft)
09.07.2010 01:35 18,9 C 21,2 C 16,7 C 17,5 C 14,7 C 0,0 C 78 % 87 % 0 % 1019,0 hPa 0,0 l/m 0,0 km/h (0 Bft) SW 225 0 min 1,4 UV-I 15,0 C 14,7 C 0,0 km/h (0 Bft)
09.07.2010 01:40 18,8 C 21,2 C 16,7 C 17,4 C 14,7 C 0,0 C 78 % 87 % 0 % 1018,8 hPa 0,0 l/m 0,0 km/h (0 Bft) SW 225 0 min 1,9 UV-I 14,9 C 14,7 C 0,0 km/h (0 Bft)
09.07.2010 01:45 18,8 C 21,3 C 16,7 C 17,4 C 14,7 C 0,0 C 77 % 87 % 0 % 1018,8 hPa 0,0 l/m 0,0 km/h (0 Bft) SW 225 0 min 1,9 UV-I 14,7 C 14,7 C 0,0 km/h (0 Bft)
09.07.2010 01:50 18,5 C 21,3 C 16,4 C 17,2 C 14,7 C 0,0 C 78 % 87 % 0 % 1018,8 hPa 0,0 l/m 0,0 km/h (0 Bft) SW 225 0 min 2,2 UV-I 14,6 C 14,7 C 0,0 km/h (0 Bft)
09.07.2010 01:55 18,7 C 21,2 C 16,5 C 17,3 C 14,6 C 0,0 C 78 % 88 % 0 % 1018,8 hPa 0,0 l/m 0,0 km/h (0 Bft) SW 225 0 min 2,2 UV-I 14,8 C 14,6 C 0,0 km/h (0 Bft)
09.07.2010 02:00 18,7 C 21,1 C 16,5 C 17,3 C 14,5 C 0,0 C 78 % 87 % 0 % 1018,7 hPa 0,0 l/m 0,2 km/h (0 Bft) SW 225 0 min 1,8 UV-I 14,8 C 14,5 C 0,0 km/h (0 Bft)
09.07.2010 02:07 18,4 C 21,1 C 16,3 C 17,0 C 14,3 C 0,0 C 78 % 88 % 0 % 1018,7 hPa 0,0 l/m 0,2 km/h (0 Bft) SW 225 0 min 1,8 UV-I 14,5 C 14,3 C 0,0 km/h (0 Bft)
09.07.2010 02:10 18,4 C 21,1 C 16,3 C 17,0 C 14,3 C 0,0 C 78 % 88 % 0 % 1018,7 hPa 0,0 l/m 0,2 km/h (0 Bft) SW 225 0 min 1,8 UV-I 14,5 C 14,3 C 0,0 km/h (0 Bft)
09.07.2010 02:15 18,5 C 21,1 C 16,3 C 17,1 C 14,3 C 0,0 C 78 % 87 % 0 % 1018,7 hPa 0,0 l/m 0,2 km/h (0 Bft) SW 225 0 min 1,8 UV-I 14,6 C 14,3 C 0,0 km/h (0 Bft)
09.07.2010 02:20 18,2 C 21,1 C 16,3 C 16,9 C 14,2 C 0,0 C 78 % 87 % 0 % 1018,7 hPa 0,0 l/m 0,0 km/h (0 Bft) SW 225 0 min 2,3 UV-I 14,3 C 14,2 C 0,0 km/h (0 Bft)
09.07.2010 02:25 18,1 C 21,1 C 16,0 C 16,8 C 14,2 C 0,0 C 78 % 87 % 0 % 1018,7 hPa 0,0 l/m 0,0 km/h (0 Bft) SW 225 0 min 2,3 UV-I 14,2 C 14,2 C 0,0 km/h (0 Bft)
09.07.2010 02:30 18,1 C 21,1 C 16,0 C 16,8 C 14,1 C 0,0 C 79 % 87 % 0 % 1018,7 hPa 0,0 l/m 0,0 km/h (0 Bft) SW 225 0 min 2,0 UV-I 14,4 C 14,1 C 0,0 km/h (0 Bft)
09.07.2010 02:35 18,0 C 21,1 C 15,9 C 16,7 C 14,1 C 0,0 C 79 % 87 % 0 % 1018,7 hPa 0,0 l/m 0,0 km/h (0 Bft) SW 225 0 min 2,0 UV-I 14,3 C 14,1 C 0,0 km/h (0 Bft)
09.07.2010 02:40 17,9 C 21,1 C 15,9 C 16,6 C 14,1 C 0,0 C 79 % 88 % 0 % 1018,4 hPa 0,0 l/m 0,0 km/h (0 Bft) SW 225 0 min 1,9 UV-I 14,2 C 14,1 C 0,0 km/h (0 Bft)
09.07.2010 02:45 17,9 C 21,1 C 15,9 C 16,6 C 14,0 C 0,0 C 79 % 88 % 0 % 1018,4 hPa 0,0 l/m 0,0 km/h (0 Bft) SW 225 0 min 1,9 UV-I 14,2 C 14,0 C 0,0 km/h (0 Bft)
09.07.2010 02:50 17,9 C 21,0 C 15,9 C 16,6 C 13,9 C 0,0 C 79 % 88 % 0 % 1018,4 hPa 0,0 l/m 0,0 km/h (0 Bft) SW 225 0 min 1,9 UV-I 14,2 C 13,9 C 0,0 km/h (0 Bft)
09.07.2010 02:55 17,9 C 21,0 C 15,9 C 16,6 C 13,9 C 0,0 C 79 % 88 % 0 % 1018,4 hPa 0,0 l/m 0,0 km/h (0 Bft) SW 225 0 min 1,9 UV-I 14,2 C 13,9 C 1,6 km/h (1 Bft)
09.07.2010 03:00 17,8 C 21,0 C 15,8 C 16,5 C 13,8 C 0,0 C 79 % 88 % 0 % 1018,4 hPa 0,0 l/m 0,3 km/h (0 Bft) SW 225 0 min 1,9 UV-I 14,1 C 13,8 C 0,0 km/h (0 Bft)
09.07.2010 03:07 17,6 C 21,1 C 15,6 C 16,3 C 13,6 C 0,0 C 79 % 88 % 0 % 1018,4 hPa 0,0 l/m 0,0 km/h (0 Bft) SW 225 0 min 2,2 UV-I 13,9 C 13,6 C 0,0 km/h (0 Bft)
09.07.2010 03:10 17,6 C 21,1 C 15,6 C 16,3 C 13,6 C 0,0 C 79 % 88 % 0 % 1018,4 hPa 0,0 l/m 0,0 km/h (0 Bft) SW 225 0 min 2,2 UV-I 13,9 C 13,6 C 0,0 km/h (0 Bft)
09.07.2010 03:15 17,5 C 21,1 C 15,6 C 16,2 C 13,5 C 0,0 C 79 % 88 % 0 % 1018,4 hPa 0,0 l/m 0,0 km/h (0 Bft) SW 225 0 min 2,2 UV-I 13,8 C 13,5 C 0,0 km/h (0 Bft)
09.07.2010 03:20 17,3 C 21,1 C 15,5 C 16,0 C 13,5 C 0,0 C 79 % 88 % 0 % 1018,2 hPa 0,0 l/m 0,0 km/h (0 Bft) SW 225 0 min 1,8 UV-I 13,6 C 13,5 C 0,0 km/h (0 Bft)
09.07.2010 03:25 17,2 C 21,1 C 15,3 C 16,0 C 13,5 C 0,0 C 80 % 88 % 0 % 1018,2 hPa 0,0 l/m 0,0 km/h (0 Bft) SW 225 0 min 1,8 UV-I 13,7 C 13,5 C 0,0 km/h (0 Bft)
09.07.2010 03:30 17,2 C 21,1 C 15,3 C 16,0 C 13,5 C 0,0 C 80 % 88 % 0 % 1018,2 hPa 0,0 l/m 0,0 km/h (0 Bft) SW 225 0 min 2,1 UV-I 13,7 C 13,5 C 0,0 km/h (0 Bft)
09.07.2010 03:35 17,2 C 21,1 C 15,3 C 16,0 C 13,5 C 0,0 C 80 % 88 % 0 % 1018,2 hPa 0,0 l/m 0,0 km/h (0 Bft) SW 225 0 min 2,1 UV-I 13,7 C 13,5 C 0,0 km/h (0 Bft)
09.07.2010 03:40 17,3 C 21,0 C 15,5 C 16,0 C 13,5 C 0,0 C 80 % 89 % 0 % 1018,4 hPa 0,0 l/m 0,0 km/h (0 Bft) SW 225 0 min 2,1 UV-I 13,8 C 13,5 C 0,0 km/h (0 Bft)
09.07.2010 03:45 17,3 C 21,0 C 15,4 C 16,0 C 13,4 C 0,0 C 80 % 88 % 0 % 1018,4 hPa 0,0 l/m 0,0 km/h (0 Bft) SW 225 0 min 2,1 UV-I 13,8 C 13,4 C 0,0 km/h (0 Bft)
09.07.2010 03:50 17,2 C 21,0 C 15,3 C 15,9 C 13,3 C 0,0 C 80 % 88 % 0 % 1018,4 hPa 0,0 l/m 0,0 km/h (0 Bft) SW 225 0 min 2,1 UV-I 13,7 C 13,3 C 0,0 km/h (0 Bft)
09.07.2010 03:55 17,1 C 21,0 C 15,3 C 15,8 C 13,3 C 0,0 C 80 % 88 % 0 % 1018,4 hPa 0,0 l/m 0,0 km/h (0 Bft) SW 225 0 min 2,1 UV-I 13,6 C 13,3 C 0,0 km/h (0 Bft)
09.07.2010 04:00 17,1 C 20,9 C 15,3 C 15,8 C 13,3 C 0,0 C 80 % 88 % 0 % 1018,4 hPa 0,0 l/m 0,0 km/h (0 Bft) SW 225 0 min 2,6 UV-I 13,6 C 13,3 C 0,0 km/h (0 Bft)
09.07.2010 04:07 17,1 C 20,9 C 15,3 C 15,8 C 13,2 C 0,0 C 80 % 89 % 0 % 1018,4 hPa 0,0 l/m 0,0 km/h (0 Bft) SW 225 0 min 2,1 UV-I 13,6 C 13,2 C 0,0 km/h (0 Bft)
09.07.2010 04:10 17,1 C 20,9 C 15,3 C 15,8 C 13,2 C 0,0 C 80 % 89 % 0 % 1018,4 hPa 0,0 l/m 0,0 km/h (0 Bft) SW 225 0 min 2,1 UV-I 13,6 C 13,2 C 0,0 km/h (0 Bft)
09.07.2010 04:15 17,1 C 20,8 C 15,1 C 15,8 C 13,1 C 0,0 C 80 % 88 % 0 % 1018,4 hPa 0,0 l/m 0,0 km/h (0 Bft) SW 225 0 min 2,1 UV-I 13,6 C 13,1 C 0,0 km/h (0 Bft)
09.07.2010 04:20 17,1 C 20,9 C 15,1 C 15,8 C 13,1 C 0,0 C 80 % 89 % 0 % 1018,6 hPa 0,0 l/m 0,0 km/h (0 Bft) SW 225 0 min 2,6 UV-I 13,6 C 13,1 C 0,0 km/h (0 Bft)
09.07.2010 04:25 16,9 C 20,9 C 15,1 C 15,6 C 13,1 C 0,0 C 80 % 89 % 0 % 1018,6 hPa 0,0 l/m 0,0 km/h (0 Bft) SW 225 0 min 2,6 UV-I 13,4 C 13,1 C 0,0 km/h (0 Bft)
09.07.2010 04:30 16,8 C 20,9 C 14,9 C 15,6 C 13,1 C 0,0 C 80 % 88 % 0 % 1018,6 hPa 0,0 l/m 0,0 km/h (0 Bft) SW 225 0 min 2,5 UV-I 13,3 C 13,1 C 0,0 km/h (0 Bft)
09.07.2010 04:35 16,7 C 20,9 C 14,8 C 15,5 C 13,0 C 0,0 C 80 % 89 % 0 % 1018,6 hPa 0,0 l/m 0,0 km/h (0 Bft) SW 225 0 min 2,5 UV-I 13,2 C 13,0 C 0,0 km/h (0 Bft)
09.07.2010 04:40 16,7 C 20,9 C 14,8 C 15,4 C 12,9 C 0,0 C 81 % 89 % 0 % 1018,9 hPa 0,0 l/m 0,0 km/h (0 Bft) SW 225 0 min 2,3 UV-I 13,4 C 12,9 C 0,0 km/h (0 Bft)
09.07.2010 04:45 16,8 C 20,8 C 14,9 C 15,5 C 12,9 C 0,0 C 81 % 90 % 0 % 1018,9 hPa 0,0 l/m 0,0 km/h (0 Bft) SW 225 0 min 2,3 UV-I 13,5 C 12,9 C 0,0 km/h (0 Bft)
09.07.2010 04:50 16,8 C 20,8 C 14,9 C 15,5 C 12,9 C 0,0 C 81 % 89 % 0 % 1018,9 hPa 0,0 l/m 0,2 km/h (0 Bft) W-SW 247 0 min 2,6 UV-I 13,5 C 12,9 C 0,0 km/h (0 Bft)
09.07.2010 04:55 16,8 C 20,8 C 14,8 C 15,5 C 12,9 C 0,0 C 81 % 89 % 0 % 1018,9 hPa 0,0 l/m 0,2 km/h (0 Bft) W-SW 247 0 min 2,6 UV-I 13,5 C 12,9 C 0,0 km/h (0 Bft)
09.07.2010 05:00 16,7 C 20,8 C 14,6 C 15,4 C 12,8 C 0,0 C 80 % 89 % 0 % 1018,8 hPa 0,0 l/m 0,0 km/h (0 Bft) SW 225 0 min 3,4 UV-I 13,2 C 12,8 C 0,0 km/h (0 Bft)
09.07.2010 05:10 16,5 C 20,8 C 14,4 C 15,3 C 12,9 C 0,0 C 81 % 89 % 0 % 1018,8 hPa 0,0 l/m 0,0 km/h (0 Bft) SW 225 0 min 3,9 UV-I 13,2 C 12,9 C 0,0 km/h (0 Bft)
09.07.2010 05:15 16,4 C 20,8 C 14,5 C 15,2 C 12,9 C 0,0 C 82 % 89 % 0 % 1018,8 hPa 0,0 l/m 0,0 km/h (0 Bft) SW 225 0 min 3,9 UV-I 13,3 C 12,9 C 0,0 km/h (0 Bft)
09.07.2010 05:20 16,4 C 20,8 C 14,6 C 15,2 C 12,8 C 0,0 C 82 % 90 % 0 % 1019,0 hPa 0,0 l/m 0,0 km/h (0 Bft) SW 225 0 min 3,9 UV-I 13,3 C 12,8 C 0,0 km/h (0 Bft)
09.07.2010 05:25 16,4 C 20,7 C 14,7 C 15,2 C 12,8 C 0,0 C 82 % 90 % 0 % 1019,0 hPa 0,0 l/m 0,0 km/h (0 Bft) W-SW 247 0 min 3,9 UV-I 13,3 C 12,8 C 0,0 km/h (0 Bft)
09.07.2010 05:30 16,6 C 20,7 C 14,6 C 15,4 C 12,9 C 0,0 C 82 % 90 % 0 % 1019,0 hPa 0,0 l/m 1,0 km/h (0 Bft) SW 225 0 min 4,1 UV-I 13,5 C 12,9 C 2,6 km/h (1 Bft)
09.07.2010 05:35 16,6 C 20,7 C 14,6 C 15,4 C 12,9 C 0,0 C 81 % 90 % 0 % 1019,0 hPa 0,0 l/m 1,1 km/h (1 Bft) S-SW 202 0 min 4,1 UV-I 13,3 C 12,9 C 0,0 km/h (0 Bft)
09.07.2010 05:40 16,5 C 20,7 C 14,4 C 15,3 C 12,8 C 0,0 C 81 % 90 % 0 % 1019,1 hPa 0,0 l/m 0,3 km/h (0 Bft) SW 225 0 min 4,4 UV-I 13,2 C 12,8 C 0,0 km/h (0 Bft)
09.07.2010 05:45 16,3 C 20,7 C 14,3 C 15,1 C 12,8 C 0,0 C 80 % 89 % 0 % 1019,1 hPa 0,0 l/m 0,0 km/h (0 Bft) SW 225 0 min 4,4 UV-I 12,8 C 12,8 C 0,0 km/h (0 Bft)
09.07.2010 05:50 16,3 C 20,6 C 14,3 C 15,2 C 12,9 C 0,0 C 81 % 90 % 0 % 1019,1 hPa 0,0 l/m 0,0 km/h (0 Bft) SW 225 0 min 4,8 UV-I 13,0 C 12,9 C 0,0 km/h (0 Bft)
09.07.2010 05:55 16,3 C 20,6 C 14,5 C 15,2 C 13,0 C 0,0 C 82 % 91 % 0 % 1019,1 hPa 0,0 l/m 0,0 km/h (0 Bft) SW 225 0 min 4,8 UV-I 13,2 C 13,0 C 0,0 km/h (0 Bft)
09.07.2010 06:00 16,4 C 20,6 C 14,4 C 15,3 C 13,1 C 0,0 C 82 % 90 % 0 % 1018,9 hPa 0,0 l/m 0,0 km/h (0 Bft) SW 225 0 min 4,7 UV-I 13,3 C 13,1 C 0,0 km/h (0 Bft)
09.07.2010 06:07 16,5 C 20,5 C 14,7 C 15,4 C 13,3 C 0,0 C 82 % 90 % 0 % 1018,9 hPa 0,0 l/m 0,2 km/h (0 Bft) SW 225 0 min 4,3 UV-I 13,4 C 13,3 C 1,8 km/h (1 Bft)
09.07.2010 06:10 16,5 C 20,5 C 14,7 C 15,4 C 13,3 C 0,0 C 82 % 90 % 0 % 1018,9 hPa 0,0 l/m 0,2 km/h (0 Bft) SW 225 0 min 4,3 UV-I 13,4 C 13,3 C 1,8 km/h (1 Bft)
09.07.2010 06:15 16,7 C 20,5 C 14,7 C 15,5 C 13,2 C 0,0 C 82 % 90 % 0 % 1018,9 hPa 0,0 l/m 0,2 km/h (0 Bft) SW 225 0 min 4,3 UV-I 13,6 C 13,2 C 0,0 km/h (0 Bft)
09.07.2010 06:20 16,8 C 20,5 C 14,5 C 15,6 C 13,2 C 0,0 C 81 % 90 % 0 % 1018,8 hPa 0,0 l/m 0,3 km/h (0 Bft) SW 225 0 min 7,1 UV-I 13,5 C 13,2 C 0,0 km/h (0 Bft)
09.07.2010 06:25 16,9 C 20,5 C 14,5 C 15,7 C 13,3 C 0,0 C 81 % 90 % 0 % 1018,8 hPa 0,0 l/m 0,6 km/h (0 Bft) SW 225 0 min 7,1 UV-I 13,6 C 13,3 C 0,0 km/h (0 Bft)
09.07.2010 06:30 17,3 C 20,4 C 14,5 C 16,0 C 13,3 C 0,0 C 80 % 90 % 0 % 1018,8 hPa 0,0 l/m 0,6 km/h (0 Bft) SW 225 0 min 4,3 UV-I 13,8 C 13,3 C 1,6 km/h (1 Bft)
09.07.2010 06:35 18,1 C 20,4 C 14,5 C 16,5 C 13,4 C 0,0 C 79 % 90 % 0 % 1018,8 hPa 0,0 l/m 0,3 km/h (0 Bft) SW 225 0 min 4,3 UV-I 14,4 C 13,4 C 0,0 km/h (0 Bft)
09.07.2010 06:40 17,9 C 20,4 C 14,5 C 16,5 C 13,6 C 0,0 C 79 % 90 % 0 % 1019,1 hPa 0,0 l/m 0,2 km/h (0 Bft) S-SW 202 0 min 5,1 UV-I 14,2 C 13,6 C 0,0 km/h (0 Bft)
09.07.2010 06:45 17,9 C 20,3 C 14,5 C 16,5 C 13,7 C 0,0 C 79 % 90 % 0 % 1019,1 hPa 0,0 l/m 0,0 km/h (0 Bft) S-SW 202 0 min 5,1 UV-I 14,2 C 13,7 C 0,0 km/h (0 Bft)
09.07.2010 06:50 18,1 C 20,3 C 14,5 C 16,7 C 14,0 C 0,0 C 79 % 90 % 0 % 1019,1 hPa 0,0 l/m 0,6 km/h (0 Bft) SW 225 0 min 3,8 UV-I 14,4 C 14,0 C 1,9 km/h (1 Bft)
09.07.2010 06:55 18,3 C 20,2 C 14,5 C 16,9 C 14,1 C 0,0 C 78 % 90 % 0 % 1019,1 hPa 0,0 l/m 1,0 km/h (0 Bft) W-SW 247 0 min 3,8 UV-I 14,4 C 14,1 C 1,6 km/h (1 Bft)
09.07.2010 07:00 19,2 C 20,3 C 14,5 C 17,9 C 15,3 C 0,0 C 77 % 90 % 0 % 1019,2 hPa 0,0 l/m 1,4 km/h (1 Bft) W-SW 247 0 min 4,5 UV-I 15,1 C 15,3 C 1,9 km/h (1 Bft)
09.07.2010 07:07 22,1 C 20,1 C 14,5 C 21,2 C 19,5 C 0,0 C 70 % 90 % 0 % 1019,2 hPa 0,0 l/m 0,5 km/h (0 Bft) SW 225 0 min 5,4 UV-I 16,4 C 19,5 C 0,0 km/h (0 Bft)
09.07.2010 07:10 22,1 C 20,1 C 14,5 C 21,2 C 19,5 C 0,0 C 70 % 90 % 0 % 1019,2 hPa 0,0 l/m 0,5 km/h (0 Bft) SW 225 0 min 5,4 UV-I 16,4 C 19,5 C 0,0 km/h (0 Bft)
09.07.2010 07:15 22,5 C 20,1 C 14,5 C 21,9 C 20,7 C 0,0 C 68 % 90 % 0 % 1019,2 hPa 0,0 l/m 0,0 km/h (0 Bft) SW 225 0 min 5,4 UV-I 16,3 C 20,7 C 0,0 km/h (0 Bft)
09.07.2010 07:20 23,0 C 20,1 C 14,5 C 22,7 C 22,0 C 0,0 C 66 % 90 % 0 % 1019,1 hPa 0,0 l/m 0,2 km/h (0 Bft) SW 225 0 min 6,1 UV-I 16,3 C 22,0 C 0,0 km/h (0 Bft)
09.07.2010 07:25 22,7 C 20,1 C 14,5 C 22,8 C 22,8 C 0,1 C 67 % 90 % 3 % 1019,1 hPa 0,0 l/m 0,3 km/h (0 Bft) S-SW 202 0 min 6,1 UV-I 16,2 C 22,8 C 1,9 km/h (1 Bft)
09.07.2010 07:30 22,7 C 20,1 C 14,5 C 23,5 C 23,5 C 0,8 C 67 % 90 % 21 % 1019,1 hPa 0,0 l/m 1,0 km/h (0 Bft) SW 225 0 min 1,5 UV-I 16,2 C 23,5 C 2,4 km/h (1 Bft)
09.07.2010 07:35 21,8 C 20,1 C 14,5 C 24,0 C 24,0 C 2,2 C 68 % 90 % 58 % 1019,1 hPa 0,0 l/m 1,3 km/h (1 Bft) W-SW 247 0 min 1,5 UV-I 15,6 C 24,0 C 1,9 km/h (1 Bft)
09.07.2010 07:40 21,5 C 20,1 C 14,5 C 24,8 C 24,8 C 3,3 C 69 % 90 % 87 % 1019,4 hPa 0,0 l/m 1,0 km/h (0 Bft) SW 225 5 min 7,7 UV-I 15,6 C 24,8 C 0,0 km/h (0 Bft)
09.07.2010 07:45 21,2 C 20,0 C 14,5 C 25,3 C 25,3 C 4,1 C 70 % 90 % 100 % 1019,4 hPa 0,0 l/m 0,3 km/h (0 Bft) W 270 5 min 7,7 UV-I 15,5 C 25,3 C 1,9 km/h (1 Bft)
09.07.2010 07:50 21,0 C 20,1 C 14,5 C 26,4 C 26,4 C 5,4 C 71 % 90 % 100 % 1019,4 hPa 0,0 l/m 0,2 km/h (0 Bft) W 270 5 min 0,0 UV-I 15,5 C 26,4 C 0,0 km/h (0 Bft)
09.07.2010 07:55 21,0 C 20,0 C 14,5 C 26,8 C 26,8 C 5,8 C 71 % 90 % 100 % 1019,4 hPa 0,0 l/m 0,2 km/h (0 Bft) SW 225 5 min 0,0 UV-I 15,5 C 26,8 C 0,0 km/h (0 Bft)
09.07.2010 08:00 21,4 C 20,1 C 14,5 C 27,9 C 27,9 C 6,5 C 70 % 90 % 100 % 1019,1 hPa 0,0 l/m 0,0 km/h (0 Bft) SW 225 5 min 0,0 UV-I 15,7 C 27,9 C 0,0 km/h (0 Bft)
09.07.2010 08:07 21,5 C 20,0 C 14,5 C 28,6 C 28,6 C 7,1 C 70 % 90 % 100 % 1019,1 hPa 0,0 l/m 0,2 km/h (0 Bft) W-SW 247 7 min 0,5 UV-I 15,8 C 28,6 C 1,6 km/h (1 Bft)
09.07.2010 08:10 21,5 C 20,0 C 14,5 C 28,6 C 28,6 C 7,1 C 70 % 90 % 100 % 1019,1 hPa 0,0 l/m 0,2 km/h (0 Bft) W-SW 247 3 min 0,5 UV-I 15,8 C 28,6 C 1,6 km/h (1 Bft)
09.07.2010 08:15 21,4 C 20,0 C 14,5 C 28,9 C 28,9 C 7,5 C 71 % 90 % 100 % 1019,1 hPa 0,0 l/m 0,2 km/h (0 Bft) SW 225 5 min 0,5 UV-I 15,9 C 28,9 C 0,0 km/h (0 Bft)
09.07.2010 08:20 21,3 C 20,0 C 14,5 C 29,2 C 29,2 C 7,9 C 71 % 90 % 100 % 1019,2 hPa 0,0 l/m 0,0 km/h (0 Bft) SW 225 5 min 0,6 UV-I 15,8 C 29,2 C 0,0 km/h (0 Bft)
09.07.2010 08:25 21,4 C 20,0 C 14,5 C 29,6 C 29,6 C 8,2 C 71 % 90 % 100 % 1019,2 hPa 0,0 l/m 0,2 km/h (0 Bft) W-SW 247 5 min 0,6 UV-I 15,9 C 29,6 C 0,0 km/h (0 Bft)
09.07.2010 08:30 21,5 C 20,0 C 14,5 C 30,4 C 30,4 C 8,9 C 71 % 90 % 100 % 1019,2 hPa 0,0 l/m 0,2 km/h (0 Bft) W-NW 292 5 min 0,7 UV-I 16,0 C 30,4 C 0,0 km/h (0 Bft)
09.07.2010 08:35 21,7 C 20,0 C 14,5 C 30,8 C 30,8 C 9,1 C 70 % 90 % 100 % 1019,2 hPa 0,0 l/m 0,3 km/h (0 Bft) SW 225 5 min 0,7 UV-I 16,0 C 30,8 C 2,4 km/h (1 Bft)
09.07.2010 08:40 21,9 C 20,0 C 14,5 C 31,0 C 31,0 C 9,1 C 70 % 90 % 100 % 1019,4 hPa 0,0 l/m 0,5 km/h (0 Bft) W 270 5 min 0,8 UV-I 16,2 C 31,0 C 2,4 km/h (1 Bft)
09.07.2010 08:45 21,9 C 20,0 C 14,5 C 31,1 C 31,1 C 9,2 C 70 % 90 % 100 % 1019,4 hPa 0,0 l/m 0,6 km/h (0 Bft) SW 225 5 min 0,8 UV-I 16,2 C 31,1 C 2,6 km/h (1 Bft)
09.07.2010 08:50 21,9 C 20,0 C 14,5 C 31,3 C 31,3 C 9,4 C 71 % 90 % 100 % 1019,4 hPa 0,0 l/m 0,6 km/h (0 Bft) N 360 5 min 0,9 UV-I 16,4 C 31,3 C 0,0 km/h (0 Bft)
09.07.2010 08:55 22,0 C 20,0 C 14,5 C 31,7 C 31,7 C 9,7 C 71 % 90 % 100 % 1019,4 hPa 0,0 l/m 0,3 km/h (0 Bft) W-SW 247 5 min 0,9 UV-I 16,5 C 31,7 C 0,0 km/h (0 Bft)
09.07.2010 09:00 22,3 C 20,0 C 14,5 C 32,5 C 32,5 C 10,2 C 70 % 90 % 100 % 1019,2 hPa 0,0 l/m 0,0 km/h (0 Bft) SO 135 5 min 1,1 UV-I 16,6 C 32,5 C 0,0 km/h (0 Bft)
09.07.2010 09:07 22,7 C 20,0 C 14,5 C 32,6 C 32,6 C 9,9 C 68 % 90 % 100 % 1019,2 hPa 0,0 l/m 0,8 km/h (0 Bft) SO 135 7 min 1,2 UV-I 16,5 C 32,6 C 3,5 km/h (1 Bft)
09.07.2010 09:10 22,7 C 20,0 C 14,5 C 32,6 C 32,6 C 9,9 C 68 % 90 % 100 % 1019,2 hPa 0,0 l/m 0,8 km/h (0 Bft) SO 135 3 min 1,2 UV-I 16,5 C 32,6 C 0,0 km/h (0 Bft)
09.07.2010 09:15 22,7 C 19,9 C 14,5 C 32,8 C 32,8 C 10,1 C 68 % 90 % 100 % 1019,2 hPa 0,0 l/m 1,0 km/h (0 Bft) NW 315 5 min 1,2 UV-I 16,5 C 32,8 C 2,9 km/h (1 Bft)
09.07.2010 09:20 22,7 C 19,9 C 14,5 C 32,5 C 32,5 C 9,8 C 68 % 90 % 100 % 1019,4 hPa 0,0 l/m 1,6 km/h (1 Bft) W 270 5 min 1,4 UV-I 16,5 C 32,5 C 5,3 km/h (1 Bft)
09.07.2010 09:25 22,8 C 19,9 C 14,5 C 32,1 C 32,1 C 9,3 C 67 % 90 % 100 % 1019,4 hPa 0,0 l/m 2,7 km/h (1 Bft) S 180 5 min 1,4 UV-I 16,3 C 32,1 C 5,5 km/h (1 Bft)
09.07.2010 09:30 23,1 C 19,9 C 14,5 C 32,0 C 32,0 C 8,9 C 65 % 90 % 100 % 1019,4 hPa 0,0 l/m 2,7 km/h (1 Bft) SW 225 5 min 1,5 UV-I 16,2 C 32,0 C 2,4 km/h (1 Bft)
09.07.2010 09:35 23,1 C 19,9 C 14,5 C 32,0 C 32,0 C 8,9 C 65 % 90 % 100 % 1019,4 hPa 0,0 l/m 2,7 km/h (1 Bft) W-SW 247 5 min 1,5 UV-I 16,2 C 32,0 C 5,5 km/h (1 Bft)
09.07.2010 09:40 23,2 C 19,9 C 14,5 C 32,1 C 32,1 C 8,9 C 64 % 90 % 100 % 1019,4 hPa 0,0 l/m 2,7 km/h (1 Bft) S 180 5 min 1,6 UV-I 16,0 C 32,1 C 6,1 km/h (2 Bft)
09.07.2010 09:45 23,3 C 19,9 C 14,5 C 32,3 C 32,3 C 9,0 C 64 % 90 % 100 % 1019,4 hPa 0,0 l/m 2,4 km/h (1 Bft) W-SW 247 5 min 1,6 UV-I 16,1 C 32,3 C 2,3 km/h (1 Bft)
09.07.2010 09:50 23,6 C 19,9 C 14,5 C 32,9 C 32,9 C 9,3 C 63 % 90 % 100 % 1019,4 hPa 0,0 l/m 1,4 km/h (1 Bft) W-SW 247 5 min 1,3 UV-I 16,1 C 32,9 C 2,7 km/h (1 Bft)
09.07.2010 09:55 23,7 C 19,9 C 14,5 C 33,1 C 33,1 C 9,4 C 63 % 90 % 100 % 1019,4 hPa 0,0 l/m 1,1 km/h (1 Bft) S 180 5 min 1,3 UV-I 16,2 C 33,1 C 0,0 km/h (0 Bft)
09.07.2010 10:00 23,8 C 19,9 C 14,5 C 33,6 C 33,6 C 9,8 C 62 % 90 % 100 % 1018,9 hPa 0,0 l/m 1,3 km/h (1 Bft) SW 225 5 min 1,2 UV-I 16,1 C 33,6 C 2,7 km/h (1 Bft)
09.07.2010 10:07 24,0 C 19,9 C 14,5 C 33,9 C 33,9 C 9,9 C 63 % 90 % 100 % 1018,9 hPa 0,0 l/m 1,6 km/h (1 Bft) O-SO 112 7 min 1,2 UV-I 16,5 C 33,9 C 3,2 km/h (1 Bft)
09.07.2010 10:10 24,0 C 19,9 C 14,5 C 33,9 C 33,9 C 9,9 C 63 % 90 % 100 % 1018,9 hPa 0,0 l/m 1,6 km/h (1 Bft) O-SO 112 3 min 1,2 UV-I 16,5 C 33,9 C 3,2 km/h (1 Bft)
09.07.2010 10:15 24,1 C 20,0 C 14,5 C 33,8 C 33,8 C 9,7 C 63 % 90 % 100 % 1018,9 hPa 0,0 l/m 1,3 km/h (1 Bft) W-SW 247 5 min 1,2 UV-I 16,6 C 33,8 C 0,0 km/h (0 Bft)
09.07.2010 10:20 24,2 C 20,0 C 14,5 C 33,8 C 33,8 C 9,6 C 62 % 90 % 100 % 1019,2 hPa 0,0 l/m 1,6 km/h (1 Bft) SW 225 5 min 1,3 UV-I 16,4 C 33,8 C 1,9 km/h (1 Bft)
09.07.2010 10:25 24,4 C 20,0 C 14,5 C 33,9 C 33,9 C 9,5 C 62 % 90 % 100 % 1019,2 hPa 0,0 l/m 1,6 km/h (1 Bft) SW 225 5 min 1,3 UV-I 16,6 C 33,9 C 1,8 km/h (1 Bft)
09.07.2010 10:30 24,5 C 20,0 C 14,5 C 34,1 C 34,1 C 9,6 C 61 % 90 % 100 % 1019,2 hPa 0,0 l/m 0,8 km/h (0 Bft) O-SO 112 5 min 2,2 UV-I 16,5 C 34,1 C 0,0 km/h (0 Bft)
09.07.2010 10:35 24,7 C 19,9 C 14,5 C 34,3 C 34,3 C 9,6 C 61 % 90 % 100 % 1019,2 hPa 0,0 l/m 1,1 km/h (1 Bft) W-SW 247 5 min 2,2 UV-I 16,7 C 34,3 C 3,5 km/h (1 Bft)
09.07.2010 10:40 24,8 C 19,9 C 14,5 C 34,0 C 34,0 C 9,2 C 61 % 90 % 100 % 1018,8 hPa 0,0 l/m 1,9 km/h (1 Bft) SO 135 5 min 2,4 UV-I 16,8 C 34,0 C 2,3 km/h (1 Bft)
09.07.2010 10:45 24,9 C 19,9 C 14,5 C 34,0 C 34,0 C 9,1 C 61 % 90 % 100 % 1018,8 hPa 0,0 l/m 1,8 km/h (1 Bft) S-SO 157 5 min 2,4 UV-I 16,8 C 34,0 C 2,1 km/h (1 Bft)
09.07.2010 10:50 25,1 C 20,0 C 14,5 C 34,1 C 34,1 C 9,0 C 61 % 90 % 100 % 1018,8 hPa 0,0 l/m 1,6 km/h (1 Bft) S 180 5 min 2,6 UV-I 17,0 C 34,1 C 3,9 km/h (1 Bft)
09.07.2010 10:55 25,3 C 20,0 C 14,5 C 33,9 C 33,9 C 8,6 C 60 % 90 % 100 % 1018,8 hPa 0,0 l/m 1,9 km/h (1 Bft) N-NO 22 5 min 2,6 UV-I 17,0 C 33,9 C 0,0 km/h (0 Bft)
09.07.2010 11:00 25,5 C 20,0 C 14,5 C 33,9 C 33,9 C 8,4 C 60 % 90 % 100 % 1018,9 hPa 0,0 l/m 2,3 km/h (1 Bft) S-SO 157 5 min 2,8 UV-I 17,2 C 33,9 C 6,3 km/h (2 Bft)
09.07.2010 11:07 25,8 C 20,0 C 14,5 C 34,3 C 34,3 C 8,5 C 58 % 90 % 100 % 1018,9 hPa 0,0 l/m 1,4 km/h (1 Bft) S-SO 157 7 min 3,0 UV-I 16,9 C 34,3 C 2,4 km/h (1 Bft)
09.07.2010 11:08 25,8 C 20,0 C 14,5 C 34,3 C 34,3 C 8,5 C 58 % 90 % 100 % 1018,9 hPa 0,0 l/m 1,4 km/h (1 Bft) S-SO 157 1 min 3,0 UV-I 16,9 C 34,3 C 2,4 km/h (1 Bft)
09.07.2010 11:10 25,8 C 20,0 C 14,5 C 34,3 C 34,3 C 8,5 C 58 % 90 % 100 % 1018,9 hPa 0,0 l/m 1,4 km/h (1 Bft) S-SO 157 2 min 3,0 UV-I 16,9 C 34,3 C 2,4 km/h (1 Bft)
09.07.2010 11:15 25,9 C 20,0 C 14,5 C 34,3 C 34,3 C 8,4 C 57 % 90 % 100 % 1018,9 hPa 0,0 l/m 2,1 km/h (1 Bft) W-SW 247 5 min 3,0 UV-I 16,7 C 34,3 C 4,0 km/h (1 Bft)
09.07.2010 11:20 26,0 C 20,0 C 14,5 C 33,5 C 33,5 C 7,5 C 56 % 90 % 100 % 1018,8 hPa 0,0 l/m 3,7 km/h (1 Bft) W-SW 247 5 min 3,2 UV-I 16,5 C 33,5 C 9,5 km/h (2 Bft)
09.07.2010 11:25 26,2 C 20,0 C 14,5 C 33,4 C 33,4 C 7,2 C 55 % 90 % 100 % 1018,8 hPa 0,0 l/m 3,7 km/h (1 Bft) S 180 5 min 3,2 UV-I 16,4 C 33,4 C 2,7 km/h (1 Bft)
09.07.2010 11:30 26,5 C 20,1 C 14,5 C 33,7 C 33,7 C 7,2 C 55 % 90 % 100 % 1018,8 hPa 0,0 l/m 2,4 km/h (1 Bft) S 180 5 min 2,2 UV-I 16,7 C 33,7 C 4,0 km/h (1 Bft)
09.07.2010 11:35 26,6 C 20,0 C 14,5 C 33,9 C 33,9 C 7,3 C 54 % 90 % 100 % 1018,8 hPa 0,0 l/m 1,6 km/h (1 Bft) NO 45 5 min 2,2 UV-I 16,5 C 33,9 C 0,0 km/h (0 Bft)
09.07.2010 11:40 26,9 C 20,1 C 14,5 C 34,4 C 34,4 C 7,5 C 55 % 90 % 100 % 1018,9 hPa 0,0 l/m 1,1 km/h (1 Bft) SW 225 5 min 2,9 UV-I 17,1 C 34,4 C 1,6 km/h (1 Bft)
09.07.2010 11:45 26,9 C 20,1 C 14,5 C 34,6 C 34,6 C 7,7 C 54 % 90 % 100 % 1018,9 hPa 0,0 l/m 1,6 km/h (1 Bft) W-NW 292 5 min 2,9 UV-I 16,8 C 34,6 C 3,4 km/h (1 Bft)
09.07.2010 11:50 27,0 C 20,1 C 14,5 C 34,8 C 34,8 C 7,8 C 54 % 90 % 100 % 1018,9 hPa 0,0 l/m 1,9 km/h (1 Bft) S-SO 157 5 min 3,9 UV-I 16,9 C 34,8 C 3,4 km/h (1 Bft)
09.07.2010 11:55 27,3 C 20,1 C 14,5 C 34,4 C 34,4 C 7,1 C 53 % 90 % 100 % 1018,9 hPa 0,0 l/m 2,1 km/h (1 Bft) S 180 5 min 3,9 UV-I 16,9 C 34,4 C 0,0 km/h (0 Bft)
09.07.2010 12:00 27,5 C 20,1 C 14,5 C 34,6 C 34,6 C 7,1 C 53 % 90 % 100 % 1018,8 hPa 0,0 l/m 1,8 km/h (1 Bft) O-SO 112 5 min 4,0 UV-I 17,0 C 34,6 C 1,9 km/h (1 Bft)
09.07.2010 12:10 27,6 C 20,1 C 14,5 C 34,2 C 34,2 C 6,6 C 51 % 90 % 100 % 1018,8 hPa 0,0 l/m 3,9 km/h (1 Bft) SW 225 10 min 4,1 UV-I 16,5 C 34,2 C 4,8 km/h (1 Bft)
09.07.2010 12:15 27,6 C 20,1 C 14,5 C 34,0 C 34,0 C 6,4 C 49 % 90 % 100 % 1018,8 hPa 0,0 l/m 3,7 km/h (1 Bft) SW 225 5 min 4,1 UV-I 15,9 C 34,0 C 3,7 km/h (1 Bft)
09.07.2010 12:20 27,7 C 20,2 C 14,5 C 34,1 C 34,1 C 6,4 C 48 % 90 % 100 % 1018,7 hPa 0,0 l/m 3,2 km/h (1 Bft) S-SW 202 5 min 3,9 UV-I 15,7 C 34,1 C 5,8 km/h (2 Bft)
09.07.2010 12:25 27,9 C 20,2 C 14,5 C 34,1 C 34,1 C 6,2 C 49 % 90 % 100 % 1018,7 hPa 0,0 l/m 2,7 km/h (1 Bft) N-NO 22 5 min 3,9 UV-I 16,2 C 34,1 C 3,1 km/h (1 Bft)
09.07.2010 12:30 28,1 C 20,2 C 14,5 C 34,4 C 34,4 C 6,3 C 49 % 90 % 100 % 1018,7 hPa 0,0 l/m 2,6 km/h (1 Bft) SW 225 5 min 3,9 UV-I 16,4 C 34,4 C 1,8 km/h (1 Bft)
09.07.2010 12:35 28,3 C 20,2 C 14,5 C 34,4 C 34,4 C 6,1 C 48 % 90 % 100 % 1018,7 hPa 0,0 l/m 2,1 km/h (1 Bft) S 180 5 min 3,9 UV-I 16,2 C 34,4 C 0,0 km/h (0 Bft)
09.07.2010 12:40 28,4 C 20,3 C 14,5 C 34,7 C 34,7 C 6,3 C 48 % 90 % 100 % 1018,8 hPa 0,0 l/m 1,6 km/h (1 Bft) S 180 5 min 3,9 UV-I 16,3 C 34,7 C 4,5 km/h (1 Bft)
09.07.2010 12:45 28,5 C 20,3 C 14,5 C 34,8 C 34,8 C 6,3 C 47 % 90 % 100 % 1018,8 hPa 0,0 l/m 1,9 km/h (1 Bft) W-SW 247 5 min 3,9 UV-I 16,1 C 34,8 C 3,7 km/h (1 Bft)
09.07.2010 12:50 28,6 C 20,3 C 14,5 C 34,6 C 34,6 C 6,0 C 47 % 90 % 100 % 1018,8 hPa 0,0 l/m 3,7 km/h (1 Bft) SW 225 5 min 3,9 UV-I 16,2 C 34,6 C 3,2 km/h (1 Bft)
09.07.2010 12:55 28,7 C 20,4 C 14,5 C 34,2 C 34,2 C 5,5 C 46 % 90 % 100 % 1018,8 hPa 0,0 l/m 4,5 km/h (1 Bft) SW 225 5 min 3,9 UV-I 15,9 C 34,2 C 5,5 km/h (1 Bft)
09.07.2010 13:00 28,9 C 20,4 C 14,5 C 34,3 C 34,3 C 5,4 C 45 % 90 % 100 % 1018,8 hPa 0,0 l/m 2,6 km/h (1 Bft) W-SW 247 5 min 4,0 UV-I 15,8 C 34,3 C 2,9 km/h (1 Bft)
09.07.2010 13:07 29,0 C 20,4 C 14,5 C 34,9 C 34,9 C 5,9 C 46 % 90 % 100 % 1018,8 hPa 0,0 l/m 1,6 km/h (1 Bft) S 180 7 min 4,2 UV-I 16,2 C 34,9 C 1,9 km/h (1 Bft)
09.07.2010 13:08 29,0 C 20,4 C 14,5 C 34,9 C 34,9 C 5,9 C 46 % 90 % 100 % 1018,8 hPa 0,0 l/m 1,6 km/h (1 Bft) S 180 1 min 4,2 UV-I 16,2 C 34,9 C 1,9 km/h (1 Bft)
09.07.2010 13:10 29,0 C 20,4 C 14,5 C 34,9 C 34,9 C 5,9 C 46 % 90 % 100 % 1018,8 hPa 0,0 l/m 1,6 km/h (1 Bft) S 180 2 min 4,2 UV-I 16,2 C 34,9 C 1,9 km/h (1 Bft)
09.07.2010 13:15 29,3 C 20,4 C 14,5 C 35,1 C 35,1 C 5,8 C 45 % 90 % 100 % 1018,8 hPa 0,0 l/m 1,4 km/h (1 Bft) N-NO 22 5 min 4,2 UV-I 16,1 C 35,1 C 0,0 km/h (0 Bft)
09.07.2010 13:20 29,3 C 20,4 C 14,5 C 35,3 C 35,3 C 6,0 C 45 % 90 % 100 % 1018,4 hPa 0,0 l/m 1,6 km/h (1 Bft) S-SO 157 5 min 4,4 UV-I 16,1 C 35,3 C 0,0 km/h (0 Bft)
09.07.2010 13:25 29,3 C 20,4 C 14,5 C 35,4 C 35,4 C 6,1 C 45 % 90 % 100 % 1018,4 hPa 0,0 l/m 1,0 km/h (0 Bft) N-NO 22 5 min 4,4 UV-I 16,1 C 35,4 C 1,9 km/h (1 Bft)
09.07.2010 13:30 29,5 C 20,5 C 14,5 C 35,6 C 35,6 C 6,1 C 45 % 90 % 100 % 1018,4 hPa 0,0 l/m 1,0 km/h (0 Bft) O-NO 67 5 min 4,5 UV-I 16,3 C 35,6 C 0,0 km/h (0 Bft)
09.07.2010 13:35 29,6 C 20,5 C 14,5 C 35,6 C 35,6 C 6,0 C 45 % 90 % 100 % 1018,4 hPa 0,0 l/m 1,1 km/h (1 Bft) SO 135 5 min 4,5 UV-I 16,4 C 35,6 C 0,0 km/h (0 Bft)
09.07.2010 13:40 29,6 C 20,5 C 14,5 C 35,6 C 35,6 C 6,0 C 44 % 90 % 100 % 1018,2 hPa 0,0 l/m 1,1 km/h (1 Bft) W-NW 292 5 min 4,6 UV-I 16,0 C 35,6 C 2,9 km/h (1 Bft)
09.07.2010 13:45 29,6 C 20,5 C 14,5 C 35,5 C 35,5 C 5,9 C 45 % 90 % 100 % 1018,2 hPa 0,0 l/m 1,8 km/h (1 Bft) S 180 5 min 4,6 UV-I 16,4 C 35,5 C 2,4 km/h (1 Bft)
09.07.2010 13:50 29,8 C 20,6 C 14,5 C 35,7 C 35,7 C 5,9 C 44 % 90 % 100 % 1018,2 hPa 0,0 l/m 1,6 km/h (1 Bft) O 90 5 min 4,5 UV-I 16,2 C 35,7 C 1,8 km/h (1 Bft)
09.07.2010 13:55 29,9 C 20,6 C 14,5 C 35,9 C 35,9 C 6,0 C 43 % 90 % 100 % 1018,2 hPa 0,0 l/m 1,8 km/h (1 Bft) S-SO 157 5 min 4,5 UV-I 15,9 C 35,9 C 6,0 km/h (2 Bft)
09.07.2010 14:00 30,0 C 20,7 C 14,5 C 35,7 C 35,7 C 5,7 C 44 % 90 % 100 % 1017,9 hPa 0,0 l/m 2,7 km/h (1 Bft) W-SW 247 5 min 4,5 UV-I 16,4 C 35,7 C 7,7 km/h (2 Bft)
09.07.2010 14:07 30,1 C 20,7 C 14,5 C 35,5 C 35,5 C 5,4 C 43 % 90 % 100 % 1017,9 hPa 0,0 l/m 2,3 km/h (1 Bft) W 270 7 min 4,5 UV-I 16,1 C 35,5 C 0,0 km/h (0 Bft)
09.07.2010 14:08 30,1 C 20,7 C 14,5 C 35,5 C 35,5 C 5,4 C 43 % 90 % 100 % 1017,9 hPa 0,0 l/m 2,3 km/h (1 Bft) W 270 1 min 4,5 UV-I 16,1 C 35,5 C 0,0 km/h (0 Bft)
09.07.2010 14:10 30,1 C 20,7 C 14,5 C 35,5 C 35,5 C 5,4 C 43 % 90 % 100 % 1017,9 hPa 0,0 l/m 2,3 km/h (1 Bft) W 270 2 min 4,5 UV-I 16,1 C 35,5 C 0,0 km/h (0 Bft)
09.07.2010 14:15 30,1 C 20,8 C 14,5 C 35,7 C 35,7 C 5,6 C 43 % 90 % 100 % 1017,9 hPa 0,0 l/m 1,8 km/h (1 Bft) N 360 5 min 4,5 UV-I 16,1 C 35,7 C 4,3 km/h (1 Bft)
09.07.2010 14:20 30,2 C 20,8 C 14,5 C 35,7 C 35,7 C 5,5 C 43 % 90 % 100 % 1018,2 hPa 0,0 l/m 3,4 km/h (1 Bft) S-SW 202 5 min 4,3 UV-I 16,2 C 35,7 C 4,8 km/h (1 Bft)
09.07.2010 14:25 30,3 C 20,8 C 14,5 C 35,4 C 35,4 C 5,1 C 43 % 90 % 100 % 1018,2 hPa 0,0 l/m 3,4 km/h (1 Bft) SW 225 5 min 4,3 UV-I 16,3 C 35,4 C 4,2 km/h (1 Bft)
09.07.2010 14:30 30,3 C 20,8 C 14,5 C 35,5 C 35,5 C 5,2 C 43 % 90 % 100 % 1018,2 hPa 0,0 l/m 3,4 km/h (1 Bft) SW 225 5 min 4,1 UV-I 16,3 C 35,5 C 4,2 km/h (1 Bft)
09.07.2010 14:35 30,4 C 20,8 C 14,5 C 35,6 C 35,6 C 5,2 C 42 % 90 % 100 % 1018,2 hPa 0,0 l/m 2,9 km/h (1 Bft) O 90 5 min 4,1 UV-I 16,0 C 35,6 C 2,6 km/h (1 Bft)
09.07.2010 14:40 30,6 C 20,8 C 14,5 C 35,9 C 35,9 C 5,3 C 42 % 90 % 100 % 1017,8 hPa 0,0 l/m 1,4 km/h (1 Bft) SW 225 5 min 3,9 UV-I 16,2 C 35,9 C 1,6 km/h (1 Bft)
09.07.2010 14:45 30,7 C 20,9 C 14,5 C 36,3 C 36,3 C 5,6 C 42 % 90 % 100 % 1017,8 hPa 0,0 l/m 1,6 km/h (1 Bft) S-SO 157 5 min 3,9 UV-I 16,3 C 36,3 C 1,6 km/h (1 Bft)
09.07.2010 14:50 30,9 C 20,9 C 14,5 C 36,4 C 36,4 C 5,5 C 41 % 90 % 100 % 1017,8 hPa 0,0 l/m 2,6 km/h (1 Bft) O-SO 112 5 min 3,8 UV-I 16,1 C 36,4 C 4,7 km/h (1 Bft)
09.07.2010 14:55 30,9 C 21,0 C 14,5 C 36,2 C 36,2 C 5,3 C 42 % 90 % 100 % 1017,8 hPa 0,0 l/m 3,5 km/h (1 Bft) S-SW 202 5 min 3,8 UV-I 16,5 C 36,2 C 4,0 km/h (1 Bft)
09.07.2010 15:00 31,1 C 21,0 C 14,5 C 35,6 C 35,6 C 4,5 C 41 % 90 % 100 % 1017,6 hPa 0,0 l/m 3,9 km/h (1 Bft) S 180 5 min 3,7 UV-I 16,3 C 35,6 C 6,1 km/h (2 Bft)
09.07.2010 15:07 31,2 C 21,1 C 14,5 C 35,7 C 35,7 C 4,5 C 40 % 90 % 100 % 1017,6 hPa 0,0 l/m 2,7 km/h (1 Bft) NO 45 7 min 3,7 UV-I 16,0 C 35,7 C 4,3 km/h (1 Bft)
09.07.2010 15:08 31,2 C 21,1 C 14,5 C 35,7 C 35,7 C 4,5 C 40 % 90 % 100 % 1017,6 hPa 0,0 l/m 2,7 km/h (1 Bft) NO 45 1 min 3,7 UV-I 16,0 C 35,7 C 4,3 km/h (1 Bft)
09.07.2010 15:10 31,2 C 21,1 C 14,5 C 35,7 C 35,7 C 4,5 C 40 % 90 % 100 % 1017,6 hPa 0,0 l/m 2,7 km/h (1 Bft) NO 45 2 min 3,7 UV-I 16,0 C 35,7 C 4,3 km/h (1 Bft)
09.07.2010 15:15 31,3 C 21,2 C 14,5 C 35,8 C 35,8 C 4,5 C 40 % 90 % 100 % 1017,6 hPa 0,0 l/m 2,3 km/h (1 Bft) S 180 5 min 3,7 UV-I 16,1 C 35,8 C 3,4 km/h (1 Bft)
09.07.2010 15:20 31,5 C 21,2 C 14,5 C 35,8 C 35,8 C 4,3 C 40 % 90 % 100 % 1017,8 hPa 0,0 l/m 2,3 km/h (1 Bft) O 90 5 min 3,7 UV-I 16,2 C 35,8 C 1,9 km/h (1 Bft)
09.07.2010 15:25 31,5 C 21,3 C 14,5 C 36,2 C 36,2 C 4,7 C 40 % 90 % 100 % 1017,8 hPa 0,0 l/m 1,9 km/h (1 Bft) W-SW 247 5 min 3,7 UV-I 16,2 C 36,2 C 1,8 km/h (1 Bft)
09.07.2010 15:30 31,6 C 21,3 C 14,5 C 36,4 C 36,4 C 4,8 C 39 % 90 % 100 % 1017,8 hPa 0,0 l/m 1,9 km/h (1 Bft) N-NO 22 5 min 3,7 UV-I 15,9 C 36,4 C 0,0 km/h (0 Bft)
09.07.2010 15:35 31,7 C 21,4 C 14,5 C 36,6 C 36,6 C 4,9 C 40 % 90 % 100 % 1017,8 hPa 0,0 l/m 1,8 km/h (1 Bft) O-NO 67 5 min 3,7 UV-I 16,4 C 36,6 C 0,0 km/h (0 Bft)
09.07.2010 15:40 31,7 C 21,4 C 14,5 C 37,0 C 37,0 C 5,3 C 39 % 90 % 100 % 1017,6 hPa 0,0 l/m 1,6 km/h (1 Bft) W-SW 247 5 min 3,7 UV-I 16,0 C 37,0 C 3,1 km/h (1 Bft)
09.07.2010 15:45 31,7 C 21,6 C 14,5 C 36,5 C 36,5 C 4,8 C 39 % 90 % 100 % 1017,6 hPa 0,0 l/m 2,9 km/h (1 Bft) O 90 5 min 3,7 UV-I 16,0 C 36,5 C 0,0 km/h (0 Bft)
09.07.2010 15:50 31,9 C 21,7 C 14,5 C 36,7 C 36,7 C 4,8 C 40 % 90 % 100 % 1017,6 hPa 0,0 l/m 2,7 km/h (1 Bft) S-SO 157 5 min 3,7 UV-I 16,6 C 36,7 C 5,8 km/h (2 Bft)
09.07.2010 15:55 32,0 C 21,7 C 14,5 C 36,8 C 36,8 C 4,8 C 40 % 90 % 100 % 1017,6 hPa 0,0 l/m 2,4 km/h (1 Bft) S-SO 157 5 min 3,5 UV-I 16,7 C 36,8 C 5,3 km/h (1 Bft)
09.07.2010 16:00 32,1 C 21,8 C 14,5 C 36,9 C 36,9 C 4,8 C 39 % 90 % 100 % 1017,1 hPa 0,0 l/m 2,3 km/h (1 Bft) SO 135 5 min 3,5 UV-I 16,4 C 36,9 C 0,0 km/h (0 Bft)
09.07.2010 16:07 32,1 C 21,9 C 14,5 C 37,1 C 37,1 C 5,0 C 39 % 90 % 100 % 1017,1 hPa 0,0 l/m 1,4 km/h (1 Bft) SW 225 7 min 3,4 UV-I 16,4 C 37,1 C 4,3 km/h (1 Bft)
09.07.2010 16:08 32,1 C 21,9 C 14,5 C 37,1 C 37,1 C 5,0 C 39 % 90 % 100 % 1017,1 hPa 0,0 l/m 1,4 km/h (1 Bft) SW 225 1 min 3,4 UV-I 16,4 C 37,1 C 4,3 km/h (1 Bft)
09.07.2010 16:10 32,1 C 21,9 C 14,5 C 37,1 C 37,1 C 5,0 C 39 % 90 % 100 % 1017,1 hPa 0,0 l/m 1,4 km/h (1 Bft) SW 225 2 min 3,4 UV-I 16,4 C 37,1 C 4,3 km/h (1 Bft)
09.07.2010 16:15 32,1 C 22,0 C 14,5 C 36,9 C 36,9 C 4,8 C 39 % 90 % 100 % 1017,1 hPa 0,0 l/m 1,9 km/h (1 Bft) O-SO 112 5 min 3,3 UV-I 16,4 C 36,9 C 1,6 km/h (1 Bft)
09.07.2010 16:20 32,3 C 22,0 C 14,5 C 37,1 C 37,1 C 4,8 C 40 % 90 % 100 % 1017,1 hPa 0,0 l/m 1,9 km/h (1 Bft) W-NW 292 5 min 3,2 UV-I 16,9 C 37,1 C 6,3 km/h (2 Bft)
09.07.2010 16:25 32,4 C 22,1 C 14,5 C 36,9 C 36,9 C 4,5 C 39 % 90 % 100 % 1017,1 hPa 0,0 l/m 2,6 km/h (1 Bft) O-SO 112 5 min 3,0 UV-I 16,6 C 36,9 C 0,0 km/h (0 Bft)
09.07.2010 16:30 32,5 C 22,1 C 14,5 C 36,8 C 36,8 C 4,3 C 39 % 90 % 100 % 1017,1 hPa 0,0 l/m 2,9 km/h (1 Bft) S-SO 157 5 min 3,0 UV-I 16,7 C 36,8 C 7,6 km/h (2 Bft)
09.07.2010 16:35 32,5 C 22,2 C 30,4 C 36,2 C 36,2 C 3,7 C 39 % 45 % 97 % 1017,1 hPa 0,0 l/m 4,0 km/h (1 Bft) S 180 5 min 2,9 UV-I 16,7 C 36,2 C 2,3 km/h (1 Bft)
09.07.2010 16:40 32,5 C 22,2 C 30,4 C 36,1 C 36,1 C 3,6 C 39 % 45 % 95 % 1017,2 hPa 0,0 l/m 3,5 km/h (1 Bft) W-SW 247 5 min 2,7 UV-I 16,7 C 36,1 C 2,1 km/h (1 Bft)
09.07.2010 16:45 32,6 C 22,3 C 30,4 C 36,4 C 36,4 C 3,8 C 39 % 45 % 100 % 1017,2 hPa 0,0 l/m 2,4 km/h (1 Bft) S-SO 157 5 min 2,6 UV-I 16,8 C 36,4 C 4,0 km/h (1 Bft)
09.07.2010 16:50 32,7 C 22,3 C 30,4 C 36,6 C 36,6 C 3,9 C 39 % 45 % 100 % 1017,2 hPa 0,0 l/m 2,1 km/h (1 Bft) W-SW 247 5 min 2,4 UV-I 16,9 C 36,6 C 3,5 km/h (1 Bft)
09.07.2010 16:55 32,7 C 22,3 C 30,4 C 36,8 C 36,8 C 4,1 C 39 % 45 % 100 % 1017,2 hPa 0,0 l/m 1,4 km/h (1 Bft) N-NW 337 5 min 2,3 UV-I 16,9 C 36,8 C 0,0 km/h (0 Bft)
09.07.2010 17:00 32,6 C 22,3 C 30,4 C 37,2 C 37,2 C 4,6 C 39 % 45 % 100 % 1017,0 hPa 0,0 l/m 0,8 km/h (0 Bft) O-NO 67 5 min 2,2 UV-I 16,8 C 37,2 C 0,0 km/h (0 Bft)
09.07.2010 17:10 32,5 C 22,4 C 30,4 C 37,0 C 37,0 C 4,5 C 39 % 45 % 100 % 1017,0 hPa 0,0 l/m 1,8 km/h (1 Bft) O-NO 67 10 min 2,0 UV-I 16,7 C 37,0 C 1,6 km/h (1 Bft)
09.07.2010 17:15 32,4 C 22,4 C 30,4 C 36,3 C 36,3 C 3,9 C 40 % 45 % 100 % 1017,0 hPa 0,0 l/m 3,2 km/h (1 Bft) O-NO 67 5 min 1,9 UV-I 17,0 C 36,3 C 5,3 km/h (1 Bft)
09.07.2010 17:20 32,3 C 22,4 C 30,4 C 35,9 C 35,9 C 3,6 C 39 % 45 % 95 % 1016,9 hPa 0,0 l/m 3,4 km/h (1 Bft) O-NO 67 5 min 1,7 UV-I 16,5 C 35,9 C 2,9 km/h (1 Bft)
09.07.2010 17:25 32,4 C 22,5 C 30,4 C 35,8 C 35,8 C 3,4 C 39 % 45 % 89 % 1016,9 hPa 0,0 l/m 2,3 km/h (1 Bft) S 180 5 min 1,6 UV-I 16,6 C 35,8 C 0,0 km/h (0 Bft)
09.07.2010 17:30 32,5 C 22,5 C 30,4 C 36,3 C 36,3 C 3,8 C 40 % 45 % 100 % 1016,9 hPa 0,0 l/m 1,1 km/h (1 Bft) N-NW 337 5 min 1,5 UV-I 17,1 C 36,3 C 0,0 km/h (0 Bft)
09.07.2010 17:35 32,5 C 22,5 C 30,4 C 36,4 C 36,4 C 3,9 C 39 % 45 % 100 % 1016,9 hPa 0,0 l/m 1,4 km/h (1 Bft) W-NW 292 5 min 1,5 UV-I 16,7 C 36,4 C 1,6 km/h (1 Bft)
09.07.2010 17:40 32,5 C 22,5 C 30,4 C 36,7 C 36,7 C 4,2 C 39 % 45 % 100 % 1017,1 hPa 0,0 l/m 1,4 km/h (1 Bft) N-NO 22 5 min 1,4 UV-I 16,7 C 36,7 C 0,0 km/h (0 Bft)
09.07.2010 17:45 32,4 C 22,5 C 30,4 C 36,5 C 36,5 C 4,1 C 39 % 45 % 100 % 1017,1 hPa 0,0 l/m 1,8 km/h (1 Bft) O-NO 67 5 min 1,3 UV-I 16,6 C 36,5 C 3,5 km/h (1 Bft)
09.07.2010 17:50 32,5 C 22,5 C 30,4 C 36,3 C 36,3 C 3,8 C 40 % 45 % 100 % 1017,1 hPa 0,0 l/m 2,1 km/h (1 Bft) NO 45 5 min 1,2 UV-I 17,1 C 36,3 C 2,9 km/h (1 Bft)
09.07.2010 17:55 32,7 C 22,6 C 30,4 C 36,6 C 36,6 C 3,9 C 39 % 45 % 100 % 1017,1 hPa 0,0 l/m 1,8 km/h (1 Bft) O-NO 67 5 min 1,1 UV-I 16,9 C 36,6 C 4,0 km/h (1 Bft)
09.07.2010 18:00 32,7 C 22,6 C 30,4 C 36,2 C 36,2 C 3,5 C 40 % 45 % 92 % 1016,9 hPa 0,0 l/m 2,1 km/h (1 Bft) O-NO 67 5 min 1,0 UV-I 17,3 C 36,2 C 1,9 km/h (1 Bft)
09.07.2010 18:10 32,6 C 22,6 C 30,4 C 36,1 C 36,1 C 3,5 C 39 % 45 % 92 % 1016,9 hPa 0,0 l/m 1,3 km/h (1 Bft) O-NO 67 10 min 0,8 UV-I 16,8 C 36,1 C 2,1 km/h (1 Bft)
09.07.2010 18:15 32,6 C 22,7 C 30,4 C 36,1 C 36,1 C 3,5 C 39 % 45 % 92 % 1016,9 hPa 0,0 l/m 1,4 km/h (1 Bft) O-NO 67 5 min 0,8 UV-I 16,8 C 36,1 C 3,7 km/h (1 Bft)
09.07.2010 18:20 32,6 C 22,7 C 30,4 C 35,9 C 35,9 C 3,3 C 39 % 45 % 87 % 1017,3 hPa 0,0 l/m 1,8 km/h (1 Bft) O-NO 67 5 min 0,7 UV-I 16,8 C 35,9 C 2,1 km/h (1 Bft)
09.07.2010 18:25 32,6 C 22,7 C 30,4 C 35,7 C 35,7 C 3,1 C 39 % 45 % 82 % 1017,3 hPa 0,0 l/m 2,1 km/h (1 Bft) O-NO 67 0 min 0,6 UV-I 16,8 C 35,7 C 3,5 km/h (1 Bft)
09.07.2010 18:30 32,6 C 22,7 C 30,4 C 35,6 C 35,6 C 3,0 C 39 % 45 % 79 % 1017,3 hPa 0,0 l/m 1,6 km/h (1 Bft) O-NO 67 0 min 0,5 UV-I 16,8 C 35,6 C 0,0 km/h (0 Bft)
09.07.2010 18:35 32,6 C 22,7 C 30,4 C 36,1 C 36,1 C 3,5 C 40 % 45 % 92 % 1017,3 hPa 0,0 l/m 1,0 km/h (0 Bft) O-NO 67 5 min 0,5 UV-I 17,2 C 36,1 C 3,4 km/h (1 Bft)
09.07.2010 18:40 32,6 C 22,8 C 30,4 C 35,9 C 35,9 C 3,3 C 39 % 45 % 87 % 1016,8 hPa 0,0 l/m 1,3 km/h (1 Bft) NO 45 5 min 0,4 UV-I 16,8 C 35,9 C 0,0 km/h (0 Bft)
09.07.2010 18:45 32,7 C 22,8 C 30,4 C 35,7 C 35,7 C 3,0 C 40 % 45 % 79 % 1016,8 hPa 0,0 l/m 1,4 km/h (1 Bft) O-NO 67 0 min 0,4 UV-I 17,3 C 35,7 C 1,9 km/h (1 Bft)
09.07.2010 18:50 32,6 C 22,8 C 30,4 C 35,6 C 35,6 C 3,0 C 40 % 45 % 79 % 1016,8 hPa 0,0 l/m 1,3 km/h (1 Bft) O 90 0 min 0,4 UV-I 17,2 C 35,6 C 2,6 km/h (1 Bft)
09.07.2010 18:55 32,6 C 22,8 C 30,4 C 35,4 C 35,4 C 2,8 C 39 % 45 % 74 % 1016,8 hPa 0,0 l/m 1,4 km/h (1 Bft) O-NO 67 0 min 0,3 UV-I 16,8 C 35,4 C 0,0 km/h (0 Bft)
09.07.2010 19:00 32,6 C 22,8 C 30,4 C 35,3 C 35,3 C 2,7 C 40 % 45 % 71 % 1016,8 hPa 0,0 l/m 1,4 km/h (1 Bft) NO 45 0 min 0,2 UV-I 17,2 C 35,3 C 2,3 km/h (1 Bft)
09.07.2010 19:10 32,3 C 22,8 C 30,4 C 34,6 C 34,6 C 2,3 C 41 % 45 % 61 % 1016,8 hPa 0,0 l/m 2,4 km/h (1 Bft) O-NO 67 0 min 0,2 UV-I 17,3 C 34,6 C 1,8 km/h (1 Bft)
09.07.2010 19:14 32,3 C 22,8 C 30,4 C 34,4 C 34,4 C 2,1 C 41 % 45 % 55 % 1016,8 hPa 0,0 l/m 2,4 km/h (1 Bft) O-NO 67 0 min 0,2 UV-I 17,3 C 34,4 C 2,3 km/h (1 Bft)
09.07.2010 19:20 32,2 C 22,8 C 30,4 C 34,2 C 34,2 C 2,0 C 41 % 45 % 53 % 1016,6 hPa 0,0 l/m 2,3 km/h (1 Bft) O-NO 67 0 min 0,1 UV-I 17,2 C 34,2 C 3,5 km/h (1 Bft)
09.07.2010 19:25 32,1 C 22,8 C 30,4 C 33,7 C 33,7 C 1,6 C 42 % 45 % 42 % 1016,6 hPa 0,0 l/m 3,5 km/h (1 Bft) O-NO 67 0 min 0,1 UV-I 17,5 C 33,7 C 3,5 km/h (1 Bft)
09.07.2010 19:30 31,9 C 22,8 C 30,4 C 33,4 C 33,4 C 1,5 C 43 % 45 % 39 % 1016,6 hPa 0,0 l/m 4,2 km/h (1 Bft) O-NO 67 0 min 0,1 UV-I 17,7 C 33,4 C 5,5 km/h (1 Bft)
09.07.2010 19:35 31,8 C 22,8 C 30,4 C 32,9 C 32,9 C 1,1 C 44 % 45 % 29 % 1016,6 hPa 0,0 l/m 4,3 km/h (1 Bft) O-NO 67 0 min 0,1 UV-I 18,0 C 32,9 C 4,5 km/h (1 Bft)
09.07.2010 19:40 31,6 C 22,8 C 30,4 C 32,7 C 32,7 C 1,1 C 43 % 45 % 29 % 1016,8 hPa 0,0 l/m 4,3 km/h (1 Bft) O-NO 67 0 min 0,0 UV-I 17,5 C 32,7 C 5,3 km/h (1 Bft)
09.07.2010 19:45 31,6 C 22,9 C 30,4 C 32,4 C 32,4 C 0,8 C 44 % 45 % 21 % 1016,8 hPa 0,0 l/m 4,0 km/h (1 Bft) NO 45 0 min 0,0 UV-I 17,8 C 32,4 C 2,9 km/h (1 Bft)
09.07.2010 19:50 31,5 C 22,9 C 30,4 C 32,3 C 32,3 C 0,8 C 45 % 45 % 21 % 1016,8 hPa 0,0 l/m 3,4 km/h (1 Bft) O-NO 67 0 min 0,0 UV-I 18,1 C 32,3 C 3,1 km/h (1 Bft)
09.07.2010 19:55 31,3 C 22,9 C 30,4 C 32,2 C 32,2 C 0,9 C 46 % 45 % 24 % 1016,8 hPa 0,0 l/m 2,9 km/h (1 Bft) NO 45 0 min 0,0 UV-I 18,3 C 32,2 C 3,5 km/h (1 Bft)
09.07.2010 20:00 31,2 C 22,9 C 30,4 C 31,9 C 31,9 C 0,7 C 46 % 45 % 18 % 1016,8 hPa 0,0 l/m 3,5 km/h (1 Bft) O-NO 67 0 min 0,0 UV-I 18,2 C 31,9 C 4,2 km/h (1 Bft)
09.07.2010 20:10 30,8 C 22,9 C 30,4 C 31,2 C 31,2 C 0,4 C 48 % 45 % 11 % 1016,8 hPa 0,0 l/m 3,5 km/h (1 Bft) NO 45 0 min 0,0 UV-I 18,5 C 31,2 C 3,2 km/h (1 Bft)
09.07.2010 20:15 30,5 C 22,9 C 30,4 C 30,4 C 30,2 C 0,0 C 49 % 45 % 0 % 1016,8 hPa 0,0 l/m 3,1 km/h (1 Bft) NO 45 0 min 0,0 UV-I 18,6 C 30,2 C 3,4 km/h (1 Bft)
09.07.2010 20:20 30,4 C 22,9 C 30,4 C 30,1 C 29,6 C 0,0 C 50 % 45 % 0 % 1016,9 hPa 0,0 l/m 2,1 km/h (1 Bft) O-NO 67 0 min 0,0 UV-I 18,8 C 29,6 C 0,0 km/h (0 Bft)
09.07.2010 20:25 30,3 C 22,9 C 30,4 C 29,8 C 28,8 C 0,0 C 51 % 45 % 0 % 1016,9 hPa 0,0 l/m 0,5 km/h (0 Bft) NO 45 0 min 0,0 UV-I 19,0 C 28,8 C 0,0 km/h (0 Bft)
09.07.2010 20:30 30,0 C 22,9 C 30,4 C 29,5 C 28,4 C 0,0 C 52 % 45 % 0 % 1016,9 hPa 0,0 l/m 0,0 km/h (0 Bft) NO 45 0 min 0,0 UV-I 19,0 C 28,4 C 0,0 km/h (0 Bft)
09.07.2010 20:35 29,6 C 22,9 C 30,4 C 29,0 C 27,8 C 0,0 C 53 % 45 % 0 % 1016,9 hPa 0,0 l/m 0,0 km/h (0 Bft) N-NO 22 0 min 0,0 UV-I 19,0 C 27,8 C 0,0 km/h (0 Bft)
09.07.2010 20:40 29,5 C 22,9 C 30,4 C 28,8 C 27,5 C 0,0 C 53 % 45 % 0 % 1016,6 hPa 0,0 l/m 0,0 km/h (0 Bft) N-NO 22 0 min 0,0 UV-I 18,9 C 27,5 C 0,0 km/h (0 Bft)
09.07.2010 20:45 29,1 C 22,9 C 30,4 C 28,4 C 27,1 C 0,0 C 53 % 45 % 0 % 1016,6 hPa 0,0 l/m 0,6 km/h (0 Bft) NO 45 0 min 0,0 UV-I 18,5 C 27,1 C 2,9 km/h (1 Bft)
09.07.2010 20:50 28,9 C 22,9 C 30,4 C 28,3 C 27,0 C 0,0 C 53 % 45 % 0 % 1016,6 hPa 0,0 l/m 1,8 km/h (1 Bft) O-NO 67 0 min 0,0 UV-I 18,3 C 27,0 C 2,4 km/h (1 Bft)
09.07.2010 20:55 28,7 C 22,9 C 30,4 C 28,1 C 26,8 C 0,0 C 54 % 45 % 0 % 1016,6 hPa 0,0 l/m 2,4 km/h (1 Bft) O-NO 67 0 min 0,0 UV-I 18,5 C 26,8 C 2,4 km/h (1 Bft)
09.07.2010 21:00 28,7 C 22,9 C 30,4 C 28,0 C 26,6 C 0,0 C 54 % 45 % 0 % 1016,8 hPa 0,0 l/m 2,1 km/h (1 Bft) O-NO 67 0 min 0,0 UV-I 18,5 C 26,6 C 2,3 km/h (1 Bft)
09.07.2010 21:10 28,5 C 22,9 C 30,4 C 27,6 C 25,9 C 0,0 C 56 % 45 % 0 % 1016,8 hPa 0,0 l/m 0,3 km/h (0 Bft) NO 45 0 min 0,0 UV-I 18,8 C 25,9 C 0,0 km/h (0 Bft)
09.07.2010 21:15 28,0 C 22,9 C 30,4 C 27,1 C 25,3 C 0,0 C 56 % 45 % 0 % 1016,8 hPa 0,0 l/m 0,0 km/h (0 Bft) NO 45 0 min 0,0 UV-I 18,4 C 25,3 C 0,0 km/h (0 Bft)
09.07.2010 21:20 27,9 C 22,9 C 30,4 C 26,9 C 25,0 C 0,0 C 58 % 45 % 0 % 1016,9 hPa 0,0 l/m 0,0 km/h (0 Bft) NO 45 0 min 0,0 UV-I 18,9 C 25,0 C 0,0 km/h (0 Bft)
09.07.2010 21:25 27,9 C 22,9 C 30,4 C 26,8 C 24,6 C 0,0 C 58 % 45 % 0 % 1016,9 hPa 0,0 l/m 0,0 km/h (0 Bft) NO 45 0 min 0,0 UV-I 18,9 C 24,6 C 0,0 km/h (0 Bft)
09.07.2010 21:30 27,7 C 22,9 C 30,4 C 26,6 C 24,3 C 0,0 C 59 % 45 % 0 % 1016,9 hPa 0,0 l/m 0,0 km/h (0 Bft) NO 45 0 min 0,0 UV-I 18,9 C 24,3 C 0,0 km/h (0 Bft)
09.07.2010 21:35 27,7 C 22,9 C 30,4 C 26,4 C 23,9 C 0,0 C 62 % 45 % 0 % 1016,9 hPa 0,0 l/m 0,2 km/h (0 Bft) SW 225 0 min 0,0 UV-I 19,7 C 23,9 C 0,0 km/h (0 Bft)
09.07.2010 21:40 27,5 C 22,9 C 30,4 C 26,2 C 23,6 C 0,0 C 63 % 45 % 0 % 1017,1 hPa 0,0 l/m 0,2 km/h (0 Bft) SW 225 0 min 0,0 UV-I 19,8 C 23,6 C 0,0 km/h (0 Bft)
09.07.2010 21:45 27,3 C 22,9 C 30,4 C 26,0 C 23,3 C 0,0 C 63 % 45 % 0 % 1017,1 hPa 0,0 l/m 0,0 km/h (0 Bft) SW 225 0 min 0,0 UV-I 19,6 C 23,3 C 0,0 km/h (0 Bft)
09.07.2010 21:50 27,1 C 22,9 C 30,4 C 25,8 C 23,2 C 0,0 C 64 % 45 % 0 % 1017,1 hPa 0,0 l/m 0,0 km/h (0 Bft) SW 225 0 min 0,0 UV-I 19,7 C 23,2 C 0,0 km/h (0 Bft)
09.07.2010 21:55 26,9 C 22,9 C 30,4 C 25,5 C 22,8 C 0,0 C 65 % 45 % 0 % 1017,1 hPa 0,0 l/m 0,0 km/h (0 Bft) SW 225 0 min 0,0 UV-I 19,7 C 22,8 C 0,0 km/h (0 Bft)
09.07.2010 22:00 26,7 C 22,9 C 30,4 C 25,4 C 22,8 C 0,0 C 65 % 45 % 0 % 1017,2 hPa 0,0 l/m 0,0 km/h (0 Bft) SW 225 0 min 0,0 UV-I 19,6 C 22,8 C 0,0 km/h (0 Bft)
09.07.2010 22:10 26,7 C 22,9 C 30,4 C 25,3 C 22,4 C 0,0 C 67 % 45 % 0 % 1017,2 hPa 0,0 l/m 0,5 km/h (0 Bft) SW 225 0 min 0,0 UV-I 20,0 C 22,4 C 1,6 km/h (1 Bft)
09.07.2010 22:15 26,5 C 22,9 C 30,4 C 25,1 C 22,2 C 0,0 C 67 % 45 % 0 % 1017,2 hPa 0,0 l/m 0,6 km/h (0 Bft) SW 225 0 min 0,0 UV-I 19,9 C 22,2 C 0,0 km/h (0 Bft)
09.07.2010 22:20 26,3 C 23,0 C 30,4 C 24,9 C 22,1 C 0,0 C 66 % 45 % 0 % 1017,3 hPa 0,0 l/m 0,5 km/h (0 Bft) SW 225 0 min 0,0 UV-I 19,4 C 22,1 C 0,0 km/h (0 Bft)
09.07.2010 22:25 26,0 C 23,0 C 30,4 C 24,6 C 21,9 C 0,0 C 67 % 45 % 0 % 1017,3 hPa 0,0 l/m 0,3 km/h (0 Bft) SW 225 0 min 0,0 UV-I 19,4 C 21,9 C 0,0 km/h (0 Bft)
09.07.2010 22:30 25,9 C 23,0 C 30,4 C 24,5 C 21,8 C 0,0 C 67 % 45 % 0 % 1017,3 hPa 0,0 l/m 0,0 km/h (0 Bft) SW 225 0 min 0,0 UV-I 19,3 C 21,8 C 0,0 km/h (0 Bft)
09.07.2010 22:36 25,6 C 23,0 C 30,4 C 24,3 C 21,7 C 0,0 C 68 % 45 % 0 % 1017,3 hPa 0,0 l/m 0,3 km/h (0 Bft) SW 225 0 min 0,0 UV-I 19,2 C 21,7 C 2,1 km/h (1 Bft)
09.07.2010 22:40 25,7 C 23,0 C 30,4 C 24,3 C 21,5 C 0,0 C 69 % 45 % 0 % 1017,4 hPa 0,0 l/m 0,5 km/h (0 Bft) SW 225 0 min 0,0 UV-I 19,6 C 21,5 C 0,0 km/h (0 Bft)
09.07.2010 22:45 25,5 C 23,0 C 30,4 C 24,1 C 21,4 C 0,0 C 68 % 45 % 0 % 1017,4 hPa 0,0 l/m 0,3 km/h (0 Bft) SW 225 0 min 0,0 UV-I 19,1 C 21,4 C 0,0 km/h (0 Bft)
09.07.2010 22:50 25,3 C 22,9 C 30,4 C 23,9 C 21,2 C 0,0 C 68 % 45 % 0 % 1017,4 hPa 0,0 l/m 0,0 km/h (0 Bft) SW 225 0 min 0,0 UV-I 19,0 C 21,2 C 0,0 km/h (0 Bft)
09.07.2010 22:55 25,3 C 22,9 C 30,4 C 23,9 C 21,1 C 0,0 C 69 % 45 % 0 % 1017,4 hPa 0,0 l/m 0,3 km/h (0 Bft) SW 225 0 min 0,0 UV-I 19,2 C 21,1 C 0,0 km/h (0 Bft)
09.07.2010 23:00 25,1 C 22,9 C 30,4 C 23,7 C 21,0 C 0,0 C 69 % 45 % 0 % 1017,4 hPa 0,0 l/m 0,3 km/h (0 Bft) SW 225 0 min 0,0 UV-I 19,0 C 21,0 C 0,0 km/h (0 Bft)
09.07.2010 23:10 24,9 C 22,9 C 30,4 C 23,5 C 20,6 C 0,0 C 70 % 45 % 0 % 1017,4 hPa 0,0 l/m 0,0 km/h (0 Bft) SW 225 0 min 0,0 UV-I 19,0 C 20,6 C 0,0 km/h (0 Bft)
09.07.2010 23:15 24,8 C 22,9 C 30,4 C 23,3 C 20,4 C 0,0 C 71 % 45 % 0 % 1017,4 hPa 0,0 l/m 0,2 km/h (0 Bft) W-SW 247 0 min 0,0 UV-I 19,2 C 20,4 C 3,2 km/h (1 Bft)
09.07.2010 23:20 24,8 C 22,9 C 30,4 C 23,3 C 20,4 C 0,0 C 71 % 45 % 0 % 1017,4 hPa 0,0 l/m 0,5 km/h (0 Bft) SW 225 0 min 0,0 UV-I 19,2 C 20,4 C 0,0 km/h (0 Bft)
09.07.2010 23:25 24,7 C 22,9 C 30,4 C 23,3 C 20,4 C 0,0 C 71 % 45 % 0 % 1017,4 hPa 0,0 l/m 0,5 km/h (0 Bft) NW 315 0 min 0,0 UV-I 19,1 C 20,4 C 0,0 km/h (0 Bft)
09.07.2010 23:30 24,4 C 22,9 C 30,4 C 23,0 C 20,3 C 0,0 C 72 % 45 % 0 % 1017,4 hPa 0,0 l/m 0,2 km/h (0 Bft) NO 45 0 min 0,0 UV-I 19,0 C 20,3 C 0,0 km/h (0 Bft)
09.07.2010 23:35 24,2 C 22,9 C 30,4 C 22,9 C 20,3 C 0,0 C 73 % 45 % 0 % 1017,4 hPa 0,0 l/m 0,2 km/h (0 Bft) NO 45 0 min 0,0 UV-I 19,0 C 20,3 C 0,0 km/h (0 Bft)
09.07.2010 23:40 24,3 C 22,9 C 30,4 C 22,9 C 20,2 C 0,0 C 73 % 45 % 0 % 1017,3 hPa 0,0 l/m 0,2 km/h (0 Bft) W-SW 247 0 min 0,0 UV-I 19,1 C 20,2 C 1,9 km/h (1 Bft)
09.07.2010 23:45 24,2 C 22,9 C 30,4 C 22,8 C 20,1 C 0,0 C 73 % 45 % 0 % 1017,3 hPa 0,0 l/m 0,2 km/h (0 Bft) W-SW 247 0 min 0,0 UV-I 19,0 C 20,1 C 0,0 km/h (0 Bft)
09.07.2010 23:50 24,1 C 22,9 C 30,4 C 22,7 C 20,0 C 0,0 C 72 % 45 % 0 % 1017,3 hPa 0,0 l/m 0,2 km/h (0 Bft) W-SW 247 0 min 0,0 UV-I 18,7 C 20,0 C 0,0 km/h (0 Bft)
09.07.2010 23:55 23,8 C 23,0 C 30,4 C 22,5 C 19,9 C 0,0 C 72 % 45 % 0 % 1017,3 hPa 0,0 l/m 0,0 km/h (0 Bft) W-SW 247 0 min 0,0 UV-I 18,4 C 19,9 C 0,0 km/h (0 Bft)
_ Min-Zeit 05:45 09:15 05:45 05:45 05:00 00:00 15:30 16:35 00:00 19:20 - 00:00 - - - 07:50 05:45 05:00 00:00
Minimum _ 16,3 C 19,9 C 14,3 C 15,1 C 12,8 C 0,0 C 39 % 45 % 0 % 1016,6 hPa - 0,0 km/h (0 Bft) - - - 0,0 UV-I 12,8 C 12,8 C 0,0 km/h (0 Bft)
_ Max-Zeit 16:50 22:20 16:35 17:00 17:00 09:00 05:15 05:55 07:45 07:40 00:00 12:55 - - 12:10 07:40 22:10 17:00 11:20
Maximum _ 32,7 C 23,0 C 30,4 C 37,2 C 37,2 C 10,2 C 82 % 91 % 100 % 1019,4 hPa 0,0 l/m 4,5 km/h
SW (1 Bft)
- - 10 min 7,7 UV-I 20,0 C 37,2 C 9,5 km/h
W-SW (2 Bft)
Durchschnitt _ 25,0 C 21,3 C 19,8 C 27,4 C 26,3 C 3,0 C 61 % 75 % 49 % 1018,2 hPa #0,0 l/m 1,2 km/h (1 Bft) O-NO - #10:55 h 2,6 UV-I 16,2 C 26,3 C 1,5 km/h (1 Bft)
2010 www.wetterstation-wechselburg.de